Location: Glens Falls
(43.3090°N, 73.6440°W)
Time: 18:00:34
(UTC-04:00)

CZ-4C R/B - Pass Details

Date: 24 February 2018
Orbit: 689 x 1313 km, 63.4° (Epoch: 18 June)

Event Time Altitude Azimuth Distance (km) Brightness Sun altitude
Rises 21:08:16 0° 317° (NW) 3,914 6.5 -38.2°
Reaches altitude 10° 21:11:01 10° 309° (NW) 3,038 5.8 -38.6°
Maximum altitude 21:17:39 37° 246° (WSW) 1,829 4.0 -39.7°
Enters shadow 21:17:46 37° 244° (WSW) 1,831 4.0 -39.7°
